Location: Vale
(35.4830°N, 81.3830°W)
Time: 15:08:37
(UTC-04:00)

SR - All Passes

Search period start: 31 October 2014 00:00
Search period end: 09 November 2014 23:00
Orbit: 576 x 888 km, 66.7° (Epoch: 31 October)

Date Brightness Start Highest point End Pass type
(mag) Time Alt. Az. Time Alt. Az. Time Alt. Az.
31 Oct - 00:13:07 10° WNW 00:15:40 14° WSW 00:18:07 10° SW night (unlit)
31 Oct - 12:55:02 10° SSW 13:00:54 77° ESE 13:06:51 10° NNE daylight
31 Oct - 14:39:48 10° W 14:43:44 18° NW 14:47:39 10° N daylight
31 Oct - 21:41:07 10° N 21:45:37 28° NE 21:49:47 10° ESE visible
31 Oct - 23:23:16 10° NW 23:27:44 31° WSW 23:31:52 10° S night (unlit)
01 Nov - 12:07:17 10° S 12:12:41 39° ESE 12:18:10 10° NE daylight
01 Nov - 13:49:45 10° WSW 13:54:57 31° NW 14:00:10 10° N daylight
01 Nov - 20:53:47 10° N 20:56:49 15° NE 20:59:42 10° E visible
01 Nov - 22:34:27 10° NNW 22:39:37 68° WSW 22:44:17 10° SSE visible
02 Nov - 10:20:29 10° SSE 10:24:38 20° ESE 10:28:49 10° ENE daylight
02 Nov - 12:00:35 10° SW 12:06:23 57° WNW 12:12:13 10° NNE daylight
02 Nov - 20:46:07 10° NNW 20:51:16 56° ENE 20:55:55 10° SE visible
02 Nov - 22:30:18 10° WNW 22:32:43 14° WSW 22:35:02 10° SW night (unlit)
03 Nov - 11:12:06 10° SSW 11:17:59 78° ESE 11:23:56 10° NNE daylight
03 Nov - 12:56:56 10° W 13:00:49 18° NW 13:04:41 10° N daylight
03 Nov - 19:58:11 10° N 20:02:41 28° NE 20:06:49 10° ESE visible
03 Nov - 21:40:22 10° NW 21:44:47 30° WSW 21:48:50 10° SSW visible
04 Nov - 10:24:19 10° S 10:29:45 40° ESE 10:35:15 10° NE daylight
04 Nov - 12:06:51 10° WSW 12:12:02 31° NW 12:17:13 10° N daylight
04 Nov - 19:10:50 10° N 19:13:52 15° NE 19:16:45 10° E visible
04 Nov - 20:51:32 10° NNW 20:56:39 67° WSW 21:01:17 10° SSE visible
05 Nov - 09:37:29 10° SSE 09:41:41 21° ESE 09:45:55 10° ENE daylight
05 Nov - 11:17:39 10° SW 11:23:27 56° WNW 11:29:16 10° NNE daylight
05 Nov - 20:03:11 10° NNW 20:08:18 57° ENE 20:12:56 10° SE visible
05 Nov - 21:47:27 10° WNW 21:49:44 13° WSW 21:51:56 10° SW night (unlit)
06 Nov - 10:29:08 10° SSW 10:35:03 79° ESE 10:40:59 10° NNE daylight
06 Nov - 12:14:03 10° W 12:17:53 17° NW 12:21:42 10° N daylight
06 Nov - 19:15:14 10° N 19:19:43 28° NE 19:23:51 10° ESE visible
06 Nov - 20:57:27 10° NW 21:01:48 29° WSW 21:05:48 10° SSW visible
07 Nov - 09:41:20 10° S 09:46:48 41° ESE 09:52:19 10° NE daylight
07 Nov - 11:23:56 10° WSW 11:29:06 30° NW 11:34:15 10° N daylight
07 Nov - 18:27:53 10° N 18:30:54 15° NE 18:33:47 10° E visible
07 Nov - 20:08:36 10° NNW 20:13:40 66° WSW 20:18:16 10° SSE visible
08 Nov - 08:54:29 10° SSE 08:58:44 21° ESE 09:03:00 10° ENE daylight
08 Nov - 10:34:42 10° SW 10:40:30 55° WNW 10:46:19 10° NNE daylight
08 Nov - 19:20:14 10° NNW 19:25:19 58° ENE 19:29:56 10° SE visible
08 Nov - 21:04:36 10° WNW 21:06:44 13° WSW 21:08:48 10° SW visible
09 Nov - 09:46:11 10° SSW 09:52:05 80° ESE 09:58:02 10° NNE daylight
09 Nov - 11:31:09 10° W 11:34:56 17° NW 11:38:42 10° N daylight
09 Nov - 18:32:17 10° N 18:36:44 29° NE 18:40:51 10° ESE visible
09 Nov - 20:14:32 10° NW 20:18:48 29° WSW 20:22:45 10° SSW visible
